GW2474 Weather Reports


time (UTC)temp
C
wind
direction
speed
KPH
gust
KPH
rain 1hr
cm
rain 24hr
cm
rain mn
cm
humidity
%
barometer
mb
20260508214555 16 258 3.2 16.1 0.00 0.00 0.00 63 1007.7
20260508213050 16 152 4.8 11.3 0.00 0.00 0.00 63 1007.6
20260508211549 16 169 4.8 14.5 0.00 0.00 0.00 64 1007.7
20260508210110 16 247 3.2 17.7 0.00 0.00 0.00 62 1007.8
20260508204552 17 257 6.4 14.5 0.00 0.00 0.00 49 1007.9
20260508203052 16 272 4.8 24.1 0.00 0.00 0.00 48 1007.9
20260508201554 17 138 6.4 14.5 0.00 0.00 0.00 47 1008.0
20260508200058 17 277 9.7 20.9 0.00 0.00 0.00 47 1008.5
20260508194550 17 259 8.0 20.9 0.00 0.00 0.00 47 1008.5
20260508193059 17 280 8.0 19.3 0.00 0.00 0.00 47 1009.0
20260508191555 16 126 4.8 19.3 0.00 0.00 0.00 48 1009.2
20260508190100 16 214 4.8 17.7 0.00 0.00 0.00 49 1009.4
20260508184608 16 280 6.4 20.9 0.00 0.00 0.00 53 1009.6
20260508183057 16 283 6.4 17.7 0.00 0.00 0.00 54 1009.4
20260508181605 16 304 6.4 14.5 0.00 0.00 0.00 54 1009.9
20260508180057 15 161 6.4 12.9 0.00 0.00 0.00 57 1009.9
20260508174551 15 283 3.2 19.3 0.00 0.00 0.00 59 1010.1
20260508173056 15 156 4.8 14.5 0.00 0.00 0.00 61 1010.1
20260508171551 15 0 3.2 14.5 0.00 0.00 0.00 61 1010.4
20260508170054 15 326 4.8 14.5 0.00 0.00 0.00 55 1010.6
20260508164601 14 156 1.6 14.5 0.00 0.00 0.00 59 1011.0
20260508163100 14 0 4.8 14.5 0.00 0.00 0.00 57 1011.1
20260508161553 14 260 3.2 9.7 0.00 0.00 0.00 60 1011.2
20260508160051 13 98 4.8 9.7 0.00 0.00 0.00 63 1011.4
20260508154556 13 312 6.4 19.3 0.00 0.00 0.00 61 1011.5
20260508153055 13 79 4.8 12.9 0.00 0.00 0.00 68 1011.6
20260508151601 12 27 3.2 8.0 0.00 0.00 0.00 68 1011.7
20260508144620 11 5 0.0 6.4 0.00 0.00 0.00 69 1011.8
20260508143109 11 5 3.2 9.7 0.00 0.00 0.00 71 1011.7
20260508141605 11 338 3.2 8.0 0.00 0.00 0.00 74 1011.8
20260508140057 11 345 4.8 9.7 0.00 0.00 0.00 76 1011.9
20260508134600 10 355 4.8 9.7 0.00 0.00 0.00 79 1011.8
20260508133116 10 346 3.2 11.3 0.00 0.00 0.00 82 1011.9
20260508131554 9 335 4.8 9.7 0.00 0.00 0.00 84 1011.8
20260508130050 8 272 1.6 8.0 0.00 0.00 0.00 84 1011.8
20260508124558 8 290 3.2 12.9 0.00 0.00 0.00 84 1012.0
20260508123102 7 244 4.8 11.3 0.00 0.00 0.00 85 1011.9
20260508121551 7 296 3.2 9.7 0.00 0.00 0.00 85 1011.8
20260508120054 6 280 1.6 6.4 0.00 0.00 0.00 85 1011.7
20260508114552 6 267 1.6 4.8 0.00 0.00 0.00 85 1011.7
20260508113105 5 0 1.6 3.2 0.00 0.00 0.00 85 1011.5
20260508111553 5 0 0.0 3.2 0.00 0.00 0.00 85 1011.5
20260508110056 5 0 0.0 1.6 0.00 0.00 0.00 85 1011.3
20260508104554 5 0 0.0 0.0 0.00 0.00 0.00 85 1011.3
20260508103058 5 0 0.0 3.2 0.00 0.00 0.00 85 1011.2
20260508101600 5 0 0.0 0.0 0.00 0.00 0.00 85 1011.1
20260508100056 5 0 0.0 0.0 0.00 0.00 0.00 85 1011.2
20260508094551 5 0 0.0 3.2 0.00 0.00 0.00 85 1011.3
20260508093055 5 267 0.0 3.2 0.00 0.00 0.00 85 1011.3
20260508091609 5 0 0.0 3.2 0.00 0.00 0.00 85 1011.2
20260508090109 5 267 0.0 3.2 0.00 0.00 0.00 85 1011.3
20260508084557 5 0 0.0 0.0 0.00 0.00 0.00 84 1011.2
20260508083050 5 0 0.0 0.0 0.00 0.00 0.00 84 1011.2
20260508081556 6 0 0.0 1.6 0.00 0.00 0.00 84 1011.3
20260508080051 6 0 0.0 1.6 0.00 0.00 0.00 84 1011.4
20260508074551 6 0 0.0 4.8 0.00 0.00 0.00 83 1011.3
20260508073104 6 267 0.0 3.2 0.00 0.00 0.00 83 1011.4
20260508071603 6 0 0.0 3.2 0.00 0.00 0.00 83 1011.5
20260508070053 7 0 3.2 6.4 0.00 0.00 0.00 83 1011.7
20260508064555 6 0 1.6 4.8 0.00 0.00 0.00 83 1011.6
20260508063054 6 0 0.0 6.4 0.00 0.00 0.00 82 1011.5
20260508061555 6 270 1.6 6.4 0.00 0.00 0.00 81 1011.6
20260508060054 6 267 0.0 4.8 0.00 0.00 0.00 80 1011.6
20260508054553 7 263 0.0 3.2 0.00 0.00 0.00 79 1011.8
20260508053113 7 276 1.6 6.4 0.00 0.00 0.00 79 1011.8
20260508051550 7 0 0.0 3.2 0.00 0.00 0.00 78 1012.1
20260508050057 7 231 0.0 3.2 0.00 0.00 0.00 77 1011.8
20260508044558 7 0 0.0 3.2 0.00 0.00 0.00 76 1011.8
20260508043103 7 0 0.0 3.2 0.00 0.00 0.00 75 1011.7
20260508041616 7 0 0.0 3.2 0.00 0.00 0.00 74 1011.7
20260508040110 8 0 0.0 3.2 0.00 0.00 0.00 73 1011.7
20260508034600 8 0 0.0 3.2 0.00 0.00 0.00 72 1011.8
20260508033052 8 0 0.0 3.2 0.00 0.00 0.00 70 1011.9
20260508031600 8 206 0.0 4.8 0.00 0.00 0.00 69 1012.0
20260508030053 9 268 0.0 4.8 0.00 0.00 0.00 68 1012.2
20260508024603 9 246 1.6 6.4 0.00 0.00 0.00 67 1012.3
20260508023052 10 229 1.6 8.0 0.00 0.00 0.00 66 1012.1
20260508021558 10 275 3.2 12.9 0.00 0.00 0.00 65 1012.1
20260508020100 10 137 4.8 19.3 0.00 0.00 0.00 65 1012.1
20260508014551 10 263 1.6 17.7 0.00 0.00 0.00 63 1012.1
20260508013055 10 229 6.4 14.5 0.00 0.00 0.00 62 1012.1
20260508011556 10 285 3.2 14.5 0.00 0.00 0.00 60 1011.8
20260508010052 11 175 4.8 20.9 0.00 0.00 0.00 57 1011.8
20260508004558 11 237 6.4 20.9 0.00 0.00 0.00 53 1011.5
20260508003057 12 265 4.8 14.5 0.00 0.00 0.00 49 1011.4
20260508001552 12 211 6.4 14.5 0.00 0.00 0.00 47 1011.2
20260508000059 12 0 6.4 14.5 0.00 0.00 0.00 46 1011.4
20260507234554 12 298 11.3 17.7 0.00 0.00 0.00 44 1011.4
20260507233102 12 252 4.8 16.1 0.00 0.00 0.00 43 1011.1
20260507231554 12 279 8.0 19.3 0.00 0.00 0.00 42 1011.2
20260507230050 13 308 4.8 17.7 0.00 0.00 0.00 42 1011.3
20260507224557 12 306 11.3 22.5 0.00 0.00 0.00 41 1011.4
20260507223056 13 289 8.0 19.3 0.00 0.00 0.00 42 1011.5
20260507221550 13 283 12.9 24.1 0.00 0.00 0.00 40 1011.4
20260507220048 13 317 8.0 19.3 0.00 0.00 0.00 42 1011.5